Wind_Speed
23 20 21 29 35 42 49 49 49 50 51 50 46 45 41 42 42 42 43 45 43 43 42 45 47 49 51 55 61 67 69 73 78 80 84 85 88 91 96 96 101 100 99 96
18 21 26 27 28 30 34 37 40 43 46 44 39 34 40 42 38 42 40 41 41 42 43 46 47 47 51 58 63 67 72 76 79 82 88 92 98 98 98 103 111 118 114 110
18 17 19 22 25 28 31 33 32 32 32 33 33 35 36 39 39 39 38 40 41 41 43 46 45 48 55 59 64 68 73 77 80 86 94 95 89 83 83 86 94 107 119 121
20 22 23 24 25 26 27 28 29 30 31 33 33 37 33 36 37 38 39 42 40 40 44 44 44 50 55 59 64 68 71 76 82 93 90 80 79 80 84 85 87 95 114 124
21 21 23 25 27 29 29 30 32 33 33 34 31 36 33 34 36 37 39 39 38 41 43 43 45 51 55 59 64 66 71 79 87 85 76 75 72 69 71 76 84 91 99 119
20 20 19 19 22 25 26 27 29 31 32 34 30 33 36 32 33 35 37 37 38 40 40 42 45 50 55 58 62 65 72 79 86 71 69 66 61 59 60 66 78 87 92 104
21 20 19 19 20 21 23 25 28 30 29 31 31 34 32 31 33 34 36 36 37 38 39 40 44 49 53 57 60 64 72 83 71 65 61 57 53 50 52 57 69 81 86 94
22 20 20 21 21 21 23 25 26 29 29 31 31 34 30 31 31 32 33 35 37 37 37 39 42 46 51 55 58 64 73 77 61 59 53 48 44 45 47 50 59 73 76 87
22 20 20 20 21 21 22 24 26 30 32 33 32 30 31 29 29 30 34 35 35 34 36 36 40 45 50 52 57 64 75 65 55 53 46 39 38 40 41 43 50 62 68 80
23 22 22 21 21 23 24 25 26 29 33 34 32 30 31 30 32 33 33 35 34 33 33 34 39 43 47 51 56 64 73 55 50 47 39 33 32 35 35 34 43 54 61 74
24 24 23 23 22 23 24 26 28 31 33 37 37 31 28 32 34 32 33 35 32 31 30 33 37 41 45 50 55 64 69 49 46 41 32 28 27 29 29 27 38 48 55 69
27 26 24 23 23 23 24 25 29 33 36 38 39 34 31 32 34 33 29 34 31 28 29 31 34 38 43 48 53 61 64 45 42 37 27 24 24 24 22 21 32 42 50 65
29 27 27 25 25 24 24 25 27 31 36 37 39 36 33 36 38 34 27 32 29 28 27 29 32 36 41 45 51 59 61 43 39 33 23 21 23 23 17 18 28 36 47 60
34 28 29 29 31 29 30 29 29 30 33 35 33 35 31 38 42 29 29 29 28 26 25 28 30 33 38 42 48 55 58 42 37 31 20 15 21 22 12 18 27 34 46 48
37 38 32 29 31 35 33 31 30 32 31 36 26 31 30 36 38 33 32 30 27 26 24 27 29 31 34 39 44 51 55 43 35 29 17 13 19 15 10 22 30 38 50 57
42 42 40 37 33 34 36 32 33 31 33 35 33 25 34 30 33 34 31 30 27 27 26 27 27 29 30 34 40 47 51 45 33 27 13 13 11 4 13 23 37 49 50 54
48 46 46 47 39 36 37 37 33 34 31 33 32 32 31 30 29 30 29 29 27 28 26 26 26 27 27 30 35 42 47 47 33 26 15 9 7 29 30 26 34 36 56 31
53 52 52 51 46 45 40 37 34 33 32 30 33 31 30 28 28 30 28 29 27 28 25 25 25 25 24 26 30 36 42 45 38 28 18 7 11 29 22 29 26 36 53 38
59 57 50 51 53 53 41 37 36 35 33 32 30 31 30 29 27 30 29 27 26 27 25 24 23 23 21 22 25 30 36 41 42 30 22 13 16 34 33 42 29 34 46 37
51 49 50 52 52 54 47 37 35 36 32 30 28 30 29 29 29 31 29 27 26 26 24 23 21 21 19 19 21 25 30 35 39 36 26 19 12 33 35 43 40 29 32 39
51 49 45 41 46 54 40 38 33 34 34 33 31 30 26 25 27 29 29 26 26 25 23 23 20 20 18 16 17 20 24 28 32 35 33 22 16 16 21 38 40 42 34 35
25 23 23 25 29 35 29 12 20 30 34 34 34 37 31 27 28 28 28 25 25 24 22 23 20 20 17 15 14 16 19 23 26 29 31 29 19 11 15 19 45 44 36 33
23 25 27 29 29 29 31 30 36 37 37 34 33 34 33 27 30 29 27 25 24 23 21 22 20 19 17 15 13 14 15 17 20 22 25 27 26 16 9 8 16 43 49 50
27 29 30 31 23 29 31 35 35 33 34 34 32 32 31 29 29 26 25 24 20 20 20 20 20 19 18 15 13 14 14 15 15 17 18 20 23 21 15 7 1 10 24 53
29 27 28 28 35 39 37 35 34 28 29 33 31 30 31 30 27 26 26 23 19 18 20 20 20 19 19 17 16 15 15 14 14 13 14 14 16 17 17 12 6 5 8 11
36 35 33 37 36 32 28 35 37 28 32 32 28 29 31 29 24 27 24 21 19 18 19 21 21 20 20 19 18 17 17 15 14 13 12 12 11 11 12 12 9 5 10 13
Wind_Direction
270 266 263 262 261 246 243 240 239 241 242 244 241 242 248 248 253 253 253 254 259 263 267 270 271 273 274 276 274 272 277 279 278 276 275 271 269 264 262 255 249 244 243 241
281 269 262 257 249 247 245 244 245 249 249 246 240 242 252 256 253 253 255 259 263 267 271 272 275 280 282 280 279 282 284 285 283 283 282 280 279 274 265 260 250 243 239 237
277 268 257 252 248 245 243 242 239 241 242 244 249 251 253 255 256 257 260 263 264 269 272 274 279 282 283 284 286 288 290 289 289 290 291 288 279 270 262 253 244 237 233 232
280 267 260 252 247 246 245 248 248 250 253 253 252 254 250 254 257 257 259 261 266 269 271 275 281 283 285 289 292 294 295 296 298 299 295 286 279 271 262 252 244 237 229 225
295 283 273 262 258 256 255 258 256 253 251 251 249 256 253 254 254 254 257 262 267 268 273 279 285 287 291 295 298 300 302 304 304 301 292 287 281 271 261 252 241 235 231 225
299 291 283 270 265 260 258 257 255 254 253 254 257 258 257 256 255 256 259 266 266 270 278 285 291 294 298 301 304 305 308 310 308 299 294 291 284 272 262 252 240 233 230 224
301 290 281 275 271 266 261 257 253 254 255 261 261 259 259 260 255 257 262 265 270 275 281 288 294 299 304 308 310 312 314 312 308 301 300 296 287 274 265 254 239 231 228 223
298 291 281 276 273 265 261 260 262 265 266 264 262 261 261 258 257 261 264 269 273 278 284 291 298 304 309 312 314 316 316 317 309 307 305 298 293 285 275 260 240 229 226 220
308 292 284 277 274 270 269 267 267 269 271 270 267 266 265 264 261 258 266 268 273 278 284 293 301 309 313 316 318 319 320 321 313 312 306 304 302 294 284 267 242 227 224 216
311 311 292 282 276 274 272 268 266 267 271 273 272 268 269 266 265 262 264 269 274 278 286 296 304 311 317 321 321 322 325 323 317 316 310 313 307 299 285 267 239 223 220 212
322 315 307 298 281 274 272 271 268 268 270 274 275 271 270 266 267 264 265 269 272 280 289 296 306 314 321 323 325 327 331 326 323 320 316 321 314 306 288 262 231 215 213 207
315 314 314 302 295 285 279 273 271 271 273 275 281 277 280 271 266 264 263 268 273 279 287 296 307 317 325 326 329 333 336 331 329 325 324 330 333 318 294 255 223 207 205 200
316 314 308 305 301 292 285 279 275 275 276 276 277 279 275 270 266 260 257 263 270 278 286 298 309 318 326 329 334 337 341 337 335 331 334 343 344 329 292 237 208 194 195 194
307 312 309 304 299 294 294 289 289 282 283 281 277 273 276 270 268 273 263 265 269 277 288 298 308 318 327 331 337 341 346 343 341 339 344 354 351 328 273 212 187 182 177 178
298 299 298 298 297 292 288 290 287 284 287 279 288 271 268 265 271 268 267 269 272 280 287 296 306 317 327 333 340 344 350 350 349 348 352 26 353 331 239 184 170 170 168 174
292 290 290 289 292 288 286 293 285 286 288 285 281 277 267 267 264 267 267 268 273 279 287 292 304 315 327 335 342 347 353 357 356 356 1 41 22 325 162 155 155 160 170 173
289 288 285 282 288 275 282 284 288 285 283 281 282 275 271 266 264 264 265 266 269 275 281 288 299 310 324 335 345 349 355 2 3 4 4 77 69 145 134 143 167 182 166 159
283 280 279 278 277 272 282 282 282 286 283 277 274 277 272 273 266 258 257 261 265 271 279 285 293 304 320 333 347 351 356 4 9 10 22 76 116 168 157 145 158 170 182 168
279 279 276 271 271 272 272 273 276 277 277 275 272 273 268 264 262 258 255 258 265 270 275 279 287 297 313 331 346 353 357 4 11 14 23 49 135 179 170 164 160 174 188 188
274 276 275 273 275 272 275 274 267 270 271 269 266 266 264 263 261 259 257 259 265 268 270 275 284 291 303 323 342 352 356 4 11 17 18 38 87 169 193 186 185 183 165 186
286 281 279 278 277 270 278 276 268 265 263 263 259 255 250 254 264 256 253 258 266 271 269 271 278 285 293 311 334 349 355 0 8 16 23 25 51 153 179 204 200 198 186 165
286 278 269 262 260 266 266 236 235 243 250 255 257 260 263 260 262 260 247 252 263 270 268 269 271 279 284 297 318 337 350 355 3 12 19 25 30 59 156 184 219 209 188 173
273 266 263 265 263 266 260 246 244 253 255 254 260 266 266 260 257 253 248 251 259 265 263 264 265 269 276 284 302 321 335 347 354 4 13 19 26 24 46 131 177 217 210 212
271 275 280 278 287 291 276 266 261 256 253 256 260 263 264 257 259 249 244 241 251 258 258 259 260 262 268 273 287 303 319 328 340 351 3 11 16 25 19 12 150 180 221 226
276 276 281 290 293 284 278 271 259 255 251 250 255 260 256 254 255 243 241 236 247 254 254 256 257 256 260 266 276 288 299 308 319 330 342 356 5 10 19 19 330 269 217 224
284 285 290 299 297 285 266 256 252 245 246 245 251 253 249 250 246 246 244 244 250 255 255 255 256 256 259 264 271 278 285 292 300 310 318 326 334 347 350 1 11 322 256 234
Height
5626 5626 5624 5626 5627 5629 5631 5633 5636 5639 5641 5644 5646 5650 5650 5652 5656 5655 5656 5658 5658 5659 5658 5658 5658 5657 5654 5652 5651 5649 5647 5642 5639 5634 5631 5629 5629 5629 5630 5632 5637 5643 5654 5662
5622 5620 5620 5621 5622 5623 5624 5626 5628 5630 5632 5634 5636 5640 5638 5640 5645 5645 5646 5647 5647 5647 5645 5646 5644 5641 5638 5636 5633 5630 5624 5617 5612 5606 5599 5593 5587 5582 5582 5585 5594 5604 5618 5632
5618 5617 5615 5615 5616 5617 5618 5619 5620 5622 5623 5625 5627 5629 5630 5631 5633 5634 5634 5636 5635 5635 5634 5634 5629 5626 5623 5619 5615 5608 5601 5592 5583 5574 5563 5550 5541 5536 5533 5536 5543 5552 5571 5594
5613 5612 5611 5610 5610 5611 5611 5612 5613 5614 5615 5616 5619 5617 5622 5623 5623 5624 5625 5624 5624 5623 5624 5621 5616 5612 5608 5603 5597 5588 5578 5567 5554 5539 5523 5512 5505 5501 5495 5499 5506 5513 5526 5552
5607 5605 5603 5603 5603 5604 5605 5604 5605 5606 5607 5608 5611 5609 5613 5614 5615 5615 5614 5613 5613 5613 5611 5606 5602 5597 5593 5586 5578 5567 5555 5540 5527 5507 5493 5484 5474 5466 5461 5463 5471 5480 5492 5512
5600 5599 5598 5597 5596 5596 5596 5596 5597 5598 5599 5599 5602 5601 5602 5604 5604 5604 5602 5602 5602 5600 5596 5592 5587 5582 5577 5570 5560 5548 5533 5517 5499 5482 5469 5456 5447 5440 5437 5435 5441 5450 5462 5481
5595 5593 5592 5591 5590 5590 5590 5590 5590 5591 5591 5591 5592 5591 5594 5593 5593 5592 5591 5590 5589 5587 5584 5580 5575 5569 5562 5552 5541 5528 5513 5494 5476 5460 5447 5434 5425 5418 5414 5412 5417 5425 5439 5457
5589 5588 5586 5584 5584 5584 5583 5583 5582 5580 5581 5582 5582 5581 5584 5582 5582 5582 5580 5579 5577 5575 5571 5567 5562 5556 5547 5537 5525 5511 5495 5475 5456 5442 5429 5417 5407 5399 5394 5392 5395 5404 5418 5434
5584 5582 5579 5578 5577 5577 5576 5575 5574 5572 5571 5571 5573 5574 5572 5572 5572 5571 5569 5568 5567 5564 5561 5556 5550 5543 5534 5524 5510 5496 5477 5456 5441 5427 5414 5402 5392 5383 5377 5375 5378 5387 5400 5417
5580 5577 5574 5572 5570 5569 5568 5567 5566 5564 5561 5560 5561 5563 5563 5563 5561 5560 5559 5557 5555 5553 5550 5545 5539 5532 5523 5511 5499 5483 5463 5443 5428 5415 5402 5390 5379 5371 5364 5362 5366 5375 5387 5405
5574 5571 5569 5565 5563 5561 5560 5558 5557 5555 5554 5549 5548 5553 5554 5551 5550 5549 5548 5546 5545 5542 5539 5535 5529 5522 5512 5500 5488 5471 5449 5431 5418 5404 5392 5380 5369 5362 5356 5353 5356 5366 5378 5398
5568 5565 5561 5558 5555 5553 5551 5550 5548 5546 5545 5542 5539 5541 5541 5539 5537 5538 5539 5535 5534 5533 5529 5525 5519 5511 5501 5490 5477 5460 5440 5423 5410 5396 5384 5373 5363 5356 5350 5348 5352 5361 5374 5393
5560 5558 5553 5551 5549 5545 5543 5541 5538 5536 5533 5533 5530 5531 5529 5527 5524 5526 5529 5526 5525 5523 5519 5515 5509 5502 5493 5481 5468 5452 5433 5416 5404 5391 5378 5367 5360 5355 5349 5348 5352 5360 5375 5393
5551 5551 5546 5543 5538 5535 5533 5531 5529 5525 5523 5520 5520 5519 5519 5512 5510 5518 5518 5517 5515 5513 5509 5506 5500 5494 5485 5475 5462 5447 5429 5412 5399 5387 5375 5365 5360 5355 5352 5352 5355 5365 5381 5397
5543 5539 5537 5534 5529 5525 5524 5522 5518 5516 5515 5507 5512 5506 5507 5504 5502 5504 5506 5505 5505 5503 5501 5497 5493 5486 5479 5470 5458 5444 5426 5410 5398 5386 5375 5366 5363 5359 5357 5359 5362 5373 5387 5404
5531 5527 5523 5522 5520 5515 5512 5512 5507 5506 5504 5500 5497 5499 5492 5496 5494 5494 5496 5495 5495 5494 5492 5489 5485 5480 5474 5465 5454 5442 5426 5410 5398 5387 5377 5370 5368 5365 5365 5367 5372 5383 5397 5410
5515 5511 5508 5505 5506 5503 5502 5500 5498 5496 5493 5491 5489 5487 5485 5485 5485 5485 5487 5487 5487 5486 5484 5482 5479 5474 5469 5461 5451 5441 5428 5413 5400 5390 5381 5373 5371 5375 5376 5379 5389 5396 5400 5410
5497 5494 5491 5489 5487 5488 5490 5487 5485 5484 5483 5480 5479 5477 5476 5475 5476 5476 5477 5478 5478 5477 5476 5474 5473 5469 5464 5457 5448 5439 5429 5416 5403 5394 5386 5379 5377 5381 5382 5386 5391 5399 5405 5417
5477 5472 5469 5470 5468 5471 5476 5474 5472 5470 5472 5470 5469 5467 5466 5465 5465 5466 5467 5469 5469 5469 5468 5467 5465 5462 5458 5453 5445 5438 5429 5419 5407 5397 5391 5387 5379 5386 5387 5389 5394 5402 5412 5420
5455 5453 5452 5451 5447 5449 5456 5457 5457 5457 5459 5458 5457 5456 5456 5456 5457 5456 5458 5459 5460 5460 5460 5460 5458 5456 5453 5449 5443 5437 5430 5421 5412 5402 5395 5391 5388 5387 5391 5391 5396 5404 5415 5425
5436 5435 5434 5432 5430 5435 5438 5438 5442 5445 5446 5445 5446 5445 5446 5447 5447 5447 5448 5450 5451 5451 5452 5452 5451 5450 5448 5445 5440 5435 5429 5423 5416 5408 5400 5397 5395 5394 5397 5399 5398 5402 5407 5417
5420 5419 5417 5415 5415 5420 5423 5425 5427 5426 5429 5432 5433 5434 5437 5438 5437 5437 5439 5441 5443 5443 5443 5444 5444 5444 5443 5440 5436 5433 5429 5424 5418 5412 5406 5401 5399 5400 5400 5403 5404 5406 5411 5416
5412 5407 5405 5406 5407 5409 5408 5410 5410 5413 5419 5422 5424 5425 5426 5427 5427 5428 5431 5433 5434 5435 5436 5436 5437 5437 5437 5434 5432 5429 5426 5423 5419 5414 5409 5405 5401 5399 5401 5403 5405 5410 5411 5416
5400 5400 5400 5397 5403 5399 5397 5397 5398 5402 5406 5411 5414 5415 5417 5418 5418 5420 5423 5425 5426 5427 5428 5429 5430 5430 5430 5429 5427 5425 5423 5421 5418 5415 5411 5408 5405 5402 5399 5399 5402 5406 5412 5415
5394 5393 5391 5391 5388 5384 5384 5382 5385 5389 5394 5397 5401 5405 5407 5409 5410 5412 5414 5417 5418 5419 5420 5422 5423 5423 5423 5423 5421 5420 5419 5418 5416 5414 5412 5409 5406 5405 5403 5400 5399 5401 5405 5409
5384 5385 5383 5379 5374 5368 5371 5368 5370 5376 5382 5387 5392 5395 5398 5401 5402 5405 5407 5410 5411 5412 5412 5413 5415 5415 5415 5416 5415 5415 5414 5414 5413 5411 5409 5408 5407 5405 5405 5404 5403 5402 5403 5406